Theta_e
310 311 312 312 313 314 314 316 318 318 315 315 314 312 309 307 307 309 309 309 307 305 302 299 301 303 305 308 309 309 310 310 311 311 311 310 310 309 309 309 310 309 310 310
311 312 310 310 312 314 315 317 319 318 313 314 313 312 308 307 306 307 308 309 307 305 302 299 298 300 302 303 305 307 307 308 309 310 309 309 309 309 309 310 309 310 310 311
312 311 309 311 311 312 312 315 316 319 312 311 313 314 309 306 306 306 305 305 304 303 301 299 297 296 299 301 302 303 305 306 307 307 308 308 308 308 308 308 308 308 309 309
310 309 310 311 312 311 312 312 316 318 316 318 312 321 310 307 307 306 305 304 302 300 299 297 296 294 295 297 300 301 303 304 305 306 307 306 306 305 305 305 306 306 307 307
310 309 309 310 310 309 312 310 314 317 318 316 313 314 314 307 308 306 305 303 300 299 297 295 294 293 293 295 297 299 301 303 303 304 304 304 302 301 301 302 303 303 303 303
309 306 308 308 309 308 310 312 312 314 317 323 316 315 315 309 310 307 304 301 299 297 295 293 292 292 291 293 294 297 299 299 301 302 301 300 299 298 300 298 299 298 298 299
310 310 308 308 311 312 315 313 315 315 320 320 310 314 317 309 306 305 303 299 296 295 294 292 291 290 290 291 291 293 295 295 296 297 297 297 296 296 295 294 293 294 294 295
311 313 309 308 310 312 313 313 316 317 317 314 311 314 312 303 301 302 301 296 294 293 291 291 289 288 288 288 289 290 291 291 292 292 292 292 292 291 291 290 290 290 290 290
309 311 307 307 308 311 314 316 312 315 305 313 311 309 303 299 298 297 295 294 293 291 290 289 288 286 286 286 286 287 287 287 287 287 287 287 287 286 286 286 286 286 287 287
308 312 307 308 307 308 312 311 316 316 320 319 314 312 313 303 300 297 295 294 292 290 289 288 286 284 284 284 284 284 284 284 284 284 284 284 283 283 283 284 283 284 284 284
305 308 308 308 308 310 312 313 312 314 314 317 314 311 305 304 301 298 295 293 291 290 289 287 284 283 283 283 283 283 282 282 282 282 282 282 282 282 282 282 282 282 283 283
305 306 308 308 306 305 308 312 310 317 313 308 310 310 299 298 300 297 295 292 291 289 287 285 283 282 282 282 281 281 281 281 281 281 281 281 281 281 281 281 281 281 281 281
306 301 302 307 306 305 307 307 310 306 307 310 313 311 297 297 297 296 293 291 290 287 285 283 281 281 281 280 280 280 280 280 280 280 280 280 280 280 280 280 280 280 280 280
306 305 308 308 308 307 309 308 309 312 313 311 310 308 299 297 296 294 292 290 288 286 285 282 281 280 280 280 280 279 279 280 280 280 280 279 279 279 279 279 279 279 279 279
306 307 303 308 309 309 308 310 309 311 313 312 311 305 304 299 296 294 291 290 288 286 284 282 281 280 280 279 279 279 279 279 279 279 279 278 278 278 278 278 278 278 278 278
308 304 304 304 308 306 307 307 309 309 310 310 305 303 301 298 294 292 292 290 289 286 285 282 281 280 280 279 279 278 278 278 278 278 278 277 278 278 277 277 277 277 277 277
309 307 306 308 308 310 308 308 307 308 308 308 309 309 297 296 296 294 292 291 290 287 285 283 281 281 280 279 279 278 278 278 278 278 277 277 277 277 277 277 277 276 276 276
310 311 309 311 312 314 308 302 305 307 307 306 303 301 300 297 297 295 293 291 291 287 285 283 281 280 280 280 279 278 278 277 277 277 277 277 277 276 276 276 276 275 275 275
309 311 312 314 313 309 309 301 305 307 307 304 305 301 297 294 292 292 292 291 290 287 285 282 281 280 280 279 279 278 277 277 277 276 276 276 276 276 275 275 275 275 275 275
307 310 312 308 314 313 307 301 300 305 311 304 303 299 295 296 300 298 291 291 289 286 284 282 280 280 280 279 278 277 277 276 276 276 276 275 275 275 275 275 275 275 275 274
309 311 312 312 313 306 301 298 299 309 307 302 303 300 296 300 301 297 292 290 288 284 283 281 280 279 279 279 278 277 277 276 276 276 275 275 275 274 274 274 274 274 274 274
311 313 312 308 311 310 296 298 308 303 296 298 298 298 297 292 291 292 291 289 285 283 281 280 280 279 279 278 278 277 277 276 276 275 274 274 274 274 274 274 274 274 273 273
305 306 307 309 309 293 298 296 292 292 295 295 295 294 293 290 290 290 288 285 283 282 281 280 279 278 278 278 278 278 277 276 275 274 274 274 274 274 274 273 273 273 273 272
291 286 300 302 300 295 296 291 290 291 295 293 293 293 291 289 288 287 285 284 281 281 280 279 278 278 277 278 278 279 278 276 275 274 274 274 274 273 273 273 273 272 272 272
293 290 293 295 292 291 291 291 293 291 292 291 289 289 289 288 287 285 284 283 282 281 279 278 278 277 277 278 278 277 277 276 275 275 274 273 273 272 272 272 272 272 271 271
289 295 300 304 293 298 298 294 292 292 291 289 288 286 286 287 285 285 284 283 281 280 278 278 277 277 277 278 277 277 277 276 276 274 273 273 273 272 272 271 271 271 271 270
Wind_Speed
2 3 5 7 7 4 6 2 7 8 4 4 5 6 6 4 5 4 5 7 8 9 10 14 17 18 19 19 18 17 15 14 8 6 5 10 15 16 17 15 16 16 17 16
4 5 7 6 7 6 4 5 3 1 4 3 6 4 3 4 3 2 4 5 7 7 8 12 15 18 20 18 18 18 17 17 15 12 13 12 13 16 18 17 16 17 17 18
7 4 7 5 4 4 2 7 7 5 3 3 4 3 6 3 6 6 3 5 6 7 7 7 11 15 16 18 16 16 16 17 15 16 14 12 12 16 15 17 18 18 18 19
4 2 8 5 6 5 4 6 7 5 3 2 2 4 4 7 8 9 8 6 6 7 7 8 6 10 14 14 12 13 15 16 16 14 12 13 13 11 11 13 15 18 19 21
7 8 6 4 6 7 6 5 8 5 9 3 2 1 3 6 7 12 11 8 7 6 7 6 6 8 11 12 12 12 16 16 13 12 12 12 14 12 13 14 16 18 20 21
4 2 6 9 4 8 8 6 6 4 3 7 7 6 4 7 7 10 13 11 11 8 8 8 7 7 11 8 12 14 16 15 12 11 12 13 13 12 13 15 17 18 21 22
2 2 2 3 5 2 2 6 2 1 2 4 3 6 12 4 4 11 18 13 10 9 8 7 6 7 9 8 8 14 15 17 14 14 14 14 14 15 17 17 17 19 21 23
7 4 7 4 7 8 6 6 5 6 4 3 2 6 5 1 2 5 13 13 10 8 7 8 8 8 10 9 10 14 16 17 16 16 17 17 18 19 20 20 21 22 23 22
6 6 2 3 3 7 5 4 4 5 2 2 4 5 3 3 4 8 12 11 10 9 8 8 9 10 10 11 12 14 17 19 19 20 21 22 22 22 23 23 24 24 23 22
6 4 2 3 3 1 6 7 3 2 2 4 4 4 6 8 12 10 12 12 10 9 8 9 10 11 12 13 15 17 18 20 20 20 21 21 21 22 22 22 24 23 23 23
5 3 1 4 7 8 3 3 2 4 4 4 2 5 2 4 14 15 11 10 12 11 9 8 10 12 14 16 17 18 18 19 19 19 20 20 21 22 23 24 23 24 23 24
5 5 4 7 4 3 3 8 7 5 5 4 1 6 1 5 8 16 14 12 10 9 9 11 12 13 15 17 17 17 16 17 18 18 19 21 21 22 23 23 23 22 23 23
6 2 3 5 5 1 5 5 7 3 2 7 6 5 2 4 9 12 15 13 11 10 9 10 12 13 17 17 17 16 16 17 18 18 19 20 21 22 22 22 21 21 22 23
4 4 8 12 2 7 7 7 10 14 8 6 11 6 5 6 9 11 13 14 13 12 12 9 11 14 19 18 18 17 16 16 17 18 19 20 20 19 20 20 19 21 21 22
6 10 4 2 2 1 3 15 15 20 22 13 13 10 5 15 17 17 13 14 15 14 13 12 11 16 18 20 18 17 17 16 16 18 18 18 18 18 18 18 19 20 21 21
3 3 3 2 4 3 3 8 17 24 20 18 3 8 1 5 12 14 17 18 18 17 16 15 18 20 19 19 21 18 17 17 16 17 17 16 16 16 17 17 17 17 19 20
8 6 4 5 6 3 7 20 15 12 18 14 17 21 6 6 14 20 20 22 22 19 18 17 21 23 22 24 23 22 19 18 17 16 16 15 15 15 15 15 15 16 16 17
14 14 5 4 4 9 12 2 7 21 13 20 3 8 16 10 15 12 17 22 20 20 20 20 25 24 24 27 24 22 20 18 17 16 15 14 13 14 13 13 14 14 14 14
17 15 7 8 13 8 8 6 8 9 15 17 23 8 6 8 6 3 16 20 20 19 25 27 29 29 31 30 27 24 21 19 17 16 15 13 12 12 11 11 12 11 12 12
6 17 11 4 10 13 12 7 6 5 16 15 19 15 13 14 8 8 20 20 19 29 30 30 30 33 34 32 29 25 22 19 17 16 14 13 12 11 11 10 10 9 9 10
9 10 17 12 6 8 6 7 5 8 8 5 20 21 22 14 7 5 21 20 26 30 31 31 33 33 35 34 30 26 23 20 17 16 14 13 12 11 10 9 8 8 8 9
14 11 7 3 9 14 6 4 14 5 1 2 5 12 15 5 6 14 20 21 26 31 33 35 32 30 34 36 32 27 24 20 18 16 14 13 12 11 10 8 7 7 7 7
4 7 7 12 10 3 15 3 2 2 3 3 5 7 10 10 6 16 16 20 24 31 31 33 33 30 33 36 33 29 24 21 19 17 16 13 12 11 9 7 7 6 6 5
4 1 4 4 7 5 15 3 3 5 3 3 3 10 12 10 15 14 15 16 20 28 30 32 31 30 30 37 33 27 25 22 20 19 17 15 13 11 10 8 7 7 6 4
2 2 5 5 2 2 6 9 6 5 4 5 5 5 8 14 13 15 15 15 24 27 29 32 32 31 32 38 33 27 25 23 21 19 18 16 14 13 10 8 8 8 6 5
7 6 4 5 7 6 6 12 12 10 8 8 9 7 6 10 15 12 14 22 26 27 28 28 28 30 35 38 33 29 26 24 22 22 21 19 16 15 12 11 10 9 8 6
Wind_Direction
100 120 194 182 184 164 167 151 163 177 225 131 194 166 169 124 89 109 111 103 91 75 58 49 53 62 69 74 73 72 73 68 82 101 104 68 65 63 60 59 57 53 50 48
70 221 218 193 183 148 156 142 135 176 313 166 183 193 148 157 175 157 142 115 114 101 66 53 47 57 61 61 66 71 72 74 72 83 82 88 82 69 66 65 60 56 55 52
164 234 154 156 143 134 202 183 172 169 134 47 116 268 193 183 160 159 150 132 111 109 91 62 48 50 58 58 57 63 70 76 80 84 92 98 88 74 68 61 54 50 52 54
200 159 157 164 178 146 201 203 169 193 80 231 199 272 228 175 177 187 182 168 144 114 97 74 58 49 54 54 68 72 75 75 74 81 85 81 83 74 67 69 67 59 53 51
228 170 146 165 197 170 224 159 188 162 184 35 269 19 249 134 203 206 191 177 145 129 115 110 79 68 60 61 68 82 81 80 80 83 87 86 80 77 71 67 65 59 55 52
186 174 152 196 168 175 156 94 57 63 56 239 201 175 242 191 203 174 174 175 152 148 137 122 97 85 74 76 75 83 85 85 86 88 84 80 77 69 69 58 57 52 51 50
115 204 287 153 99 67 137 121 54 22 232 233 163 195 239 192 187 182 172 164 152 151 147 125 107 86 80 72 83 85 91 86 87 90 88 84 82 78 73 65 59 56 51 50
156 212 176 184 176 174 196 159 156 196 200 241 92 227 249 57 36 143 159 147 144 144 135 128 124 116 99 89 87 95 96 96 94 93 91 91 89 85 81 78 73 69 65 61
144 223 120 169 167 160 210 178 161 109 84 35 223 277 219 160 136 137 144 146 154 153 150 136 130 111 109 109 101 104 104 101 99 97 98 94 93 90 86 83 79 75 72 67
209 156 192 168 133 96 167 162 87 35 163 232 263 265 245 222 200 179 173 167 157 146 144 147 129 121 121 116 114 111 108 105 104 103 99 96 94 92 89 86 81 77 76 73
152 109 184 140 211 160 140 177 101 137 174 198 255 250 194 209 187 186 178 170 160 163 156 145 132 128 126 123 119 115 114 113 107 103 102 99 95 92 89 85 82 79 78 74
205 124 173 198 241 202 183 185 162 191 216 225 190 266 53 241 195 175 170 161 158 156 151 141 137 136 134 129 128 122 121 115 109 108 106 100 98 94 90 86 83 81 78 75
189 246 77 359 335 9 200 195 177 132 117 193 187 248 48 92 135 166 158 159 156 147 141 142 144 147 143 141 133 131 127 118 118 115 110 104 98 95 92 90 87 83 79 75
155 162 196 217 209 142 195 188 199 207 227 198 230 259 195 182 165 164 165 160 159 161 162 159 158 156 151 148 141 137 130 127 124 119 112 104 100 98 95 93 89 85 80 76
175 222 164 211 111 216 226 199 193 210 222 212 241 220 209 197 191 178 167 162 163 171 170 170 166 163 159 154 148 142 135 134 132 123 114 107 106 104 101 96 91 86 80 76
191 251 120 246 154 80 300 241 217 220 222 238 292 240 50 123 135 167 176 174 178 178 177 174 169 167 166 162 156 149 145 141 139 127 118 117 112 107 102 97 92 89 83 76
172 152 126 246 143 125 287 227 215 218 221 214 221 230 150 175 183 184 181 184 183 181 177 174 172 172 169 167 165 159 153 148 142 135 128 123 117 109 102 99 95 89 85 76
195 214 180 165 144 211 249 90 199 209 216 217 256 174 183 188 199 183 188 180 183 178 175 175 171 169 169 172 167 159 157 153 149 143 138 132 125 114 109 101 95 89 85 79
199 196 209 206 210 266 280 200 165 175 243 211 217 183 155 113 78 268 189 192 181 175 172 171 171 169 172 172 169 165 161 159 155 150 145 139 133 127 118 106 99 95 85 82
211 201 202 165 208 213 258 194 179 117 272 192 192 178 155 143 192 217 183 177 172 172 168 164 165 169 172 174 172 169 166 166 163 157 152 148 141 134 127 119 108 97 88 83
185 196 207 202 208 271 173 157 145 163 248 204 195 181 163 187 209 146 163 170 169 163 160 160 164 167 174 175 175 174 171 173 168 163 159 157 152 144 134 128 118 107 99 93
180 184 188 157 200 253 138 65 176 221 302 239 165 169 183 114 111 142 156 159 157 157 160 164 163 166 176 179 179 178 179 175 172 169 168 165 162 157 151 144 128 118 111 98
186 183 175 194 204 184 188 190 151 174 172 218 153 156 145 132 137 147 151 156 160 159 159 162 163 164 176 183 185 182 181 178 175 176 176 173 168 168 164 159 144 137 126 109
268 177 183 124 203 198 199 192 223 199 191 167 152 147 149 140 151 151 152 156 156 160 161 163 161 166 172 185 188 192 183 182 182 181 181 181 181 177 178 175 168 168 160 144
290 148 176 265 228 56 246 224 184 180 152 132 126 150 151 144 155 154 157 159 162 162 164 166 168 171 177 186 188 189 189 186 186 189 189 188 190 192 190 188 192 192 193 194
170 209 199 220 187 152 224 198 178 166 179 168 153 136 142 152 155 160 163 165 162 161 162 167 171 174 181 186 188 191 192 193 194 194 194 196 198 199 199 200 203 202 211 224